TimeEDT,TemperatureF,Dew PointF,Humidity,Sea Level PressureIn,VisibilityMPH,Wind Direction,Wind SpeedMPH,Gust SpeedMPH,PrecipitationIn,Events,Conditions,WindDirDegrees,DateUTC
12:34 AM,30.2,21.2,69,30.00,10.0,NW,3.5,-,N/A,,Clear,310,2013-03-23 04:34:00
12:54 AM,30.2,21.2,69,30.01,10.0,NW,3.5,-,N/A,,Clear,310,2013-03-23 04:54:00
1:14 AM,30.2,21.2,69,30.01,10.0,Calm,Calm,-,N/A,,Clear,0,2013-03-23 05:14:00
1:34 AM,30.2,21.2,69,30.01,10.0,Calm,Calm,-,N/A,,Clear,0,2013-03-23 05:34:00
1:54 AM,30.2,21.2,69,30.00,10.0,Calm,Calm,-,N/A,,Clear,0,2013-03-23 05:54:00
2:14 AM,28.4,21.2,74,30.01,10.0,WNW,3.5,-,N/A,,Clear,300,2013-03-23 06:14:00
2:34 AM,28.4,21.2,74,30.01,10.0,NW,3.5,-,N/A,,Clear,310,2013-03-23 06:34:00
2:54 AM,26.6,21.2,80,30.01,10.0,WNW,3.5,-,N/A,,Clear,290,2013-03-23 06:54:00
3:14 AM,28.4,21.2,74,30.01,10.0,WNW,3.5,-,N/A,,Clear,300,2013-03-23 07:14:00
3:34 AM,26.6,21.2,80,30.00,10.0,NW,4.6,-,N/A,,Clear,310,2013-03-23 07:34:00
3:54 AM,26.6,21.2,80,30.00,10.0,NW,3.5,-,N/A,,Clear,320,2013-03-23 07:54:00
4:15 AM,26.6,21.2,80,30.00,10.0,NW,5.8,-,N/A,,Clear,320,2013-03-23 08:15:00
4:34 AM,26.6,21.2,80,30.00,10.0,NW,4.6,-,N/A,,Clear,320,2013-03-23 08:34:00
4:54 AM,26.6,21.2,80,30.00,10.0,WNW,3.5,-,N/A,,Clear,300,2013-03-23 08:54:00
5:14 AM,26.6,21.2,80,30.00,10.0,NW,3.5,-,N/A,,Clear,310,2013-03-23 09:14:00
5:34 AM,24.8,21.2,86,30.00,10.0,Calm,Calm,-,N/A,,Clear,0,2013-03-23 09:34:00
5:54 AM,24.8,19.4,80,30.00,10.0,NNW,3.5,-,N/A,,Clear,330,2013-03-23 09:54:00
6:14 AM,24.8,19.4,80,30.01,10.0,NNW,5.8,-,N/A,,Clear,330,2013-03-23 10:14:00
6:34 AM,24.8,21.2,86,30.01,10.0,NNW,3.5,-,N/A,,Clear,340,2013-03-23 10:34:00
6:54 AM,24.8,19.4,80,30.02,10.0,Calm,Calm,-,N/A,,Clear,0,2013-03-23 10:54:00
7:14 AM,24.8,19.4,80,30.02,10.0,NW,4.6,-,N/A,,Clear,310,2013-03-23 11:14:00
7:34 AM,24.8,19.4,80,30.03,10.0,NNW,3.5,-,N/A,,Clear,330,2013-03-23 11:34:00
7:54 AM,24.8,19.4,80,30.03,10.0,NW,3.5,-,N/A,,Clear,310,2013-03-23 11:54:00
8:14 AM,26.6,21.2,80,30.04,10.0,Calm,Calm,-,N/A,,Clear,0,2013-03-23 12:14:00
8:34 AM,26.6,23.0,86,30.04,10.0,Calm,Calm,-,N/A,,Clear,0,2013-03-23 12:34:00
8:54 AM,28.4,23.0,80,30.04,10.0,North,4.6,-,N/A,,Clear,350,2013-03-23 12:54:00
9:14 AM,30.2,23.0,75,30.05,10.0,North,3.5,-,N/A,,Clear,350,2013-03-23 13:14:00
9:34 AM,30.2,23.0,75,30.06,10.0,North,4.6,-,N/A,,Clear,360,2013-03-23 13:34:00
9:54 AM,32.0,23.0,69,30.06,10.0,North,6.9,-,N/A,,Clear,350,2013-03-23 13:54:00
10:14 AM,32.0,21.2,64,30.06,10.0,NNW,6.9,-,N/A,,Scattered Clouds,340,2013-03-23 14:14:00
10:34 AM,32.0,21.2,64,30.07,10.0,Calm,Calm,-,N/A,,Scattered Clouds,0,2013-03-23 14:34:00
10:54 AM,33.8,21.2,60,30.07,10.0,NNE,5.8,-,N/A,,Mostly Cloudy,20,2013-03-23 14:54:00
11:14 AM,33.8,21.2,60,30.08,10.0,Calm,Calm,-,N/A,,Overcast,0,2013-03-23 15:14:00
11:34 AM,33.8,21.2,60,30.08,10.0,NNE,4.6,-,N/A,,Overcast,30,2013-03-23 15:34:00
11:54 AM,33.8,21.2,60,30.08,10.0,NW,5.8,-,N/A,,Overcast,310,2013-03-23 15:54:00
12:14 PM,33.8,21.2,60,30.08,10.0,NW,4.6,-,N/A,,Overcast,310,2013-03-23 16:14:00
12:34 PM,35.6,21.2,56,30.08,10.0,WNW,3.5,-,N/A,,Overcast,290,2013-03-23 16:34:00
12:54 PM,35.6,21.2,56,30.08,10.0,North,5.8,-,N/A,,Mostly Cloudy,350,2013-03-23 16:54:00
1:14 PM,37.4,21.2,52,30.08,10.0,NNW,4.6,-,N/A,,Scattered Clouds,330,2013-03-23 17:14:00
1:34 PM,37.4,21.2,52,30.07,10.0,NE,4.6,-,N/A,,Scattered Clouds,40,2013-03-23 17:34:00
1:54 PM,37.4,21.2,52,30.07,10.0,ESE,4.6,-,N/A,,Mostly Cloudy,120,2013-03-23 17:54:00
2:14 PM,37.4,21.2,52,30.06,10.0,East,3.5,-,N/A,,Mostly Cloudy,90,2013-03-23 18:14:00
2:34 PM,37.4,21.2,52,30.06,10.0,NE,4.6,-,N/A,,Mostly Cloudy,40,2013-03-23 18:34:00
2:54 PM,37.4,21.2,52,30.06,10.0,Calm,Calm,-,N/A,,Mostly Cloudy,0,2013-03-23 18:54:00
3:15 PM,39.2,21.2,49,30.05,10.0,North,6.9,-,N/A,,Mostly Cloudy,360,2013-03-23 19:15:00
3:34 PM,37.4,21.2,52,30.04,10.0,NNE,6.9,-,N/A,,Overcast,20,2013-03-23 19:34:00
3:54 PM,39.2,21.2,49,30.04,10.0,NNW,4.6,-,N/A,,Mostly Cloudy,340,2013-03-23 19:54:00
4:14 PM,39.2,21.2,49,30.04,10.0,North,5.8,-,N/A,,Mostly Cloudy,350,2013-03-23 20:14:00
4:34 PM,39.2,21.2,49,30.05,10.0,NW,3.5,-,N/A,,Scattered Clouds,310,2013-03-23 20:34:00
4:54 PM,37.4,21.2,52,30.05,10.0,Calm,Calm,-,N/A,,Scattered Clouds,0,2013-03-23 20:54:00
5:14 PM,39.2,24.8,56,30.05,10.0,South,8.1,-,N/A,,Mostly Cloudy,180,2013-03-23 21:14:00
5:34 PM,37.4,24.8,60,30.05,10.0,South,5.8,-,N/A,,Mostly Cloudy,180,2013-03-23 21:34:00
5:54 PM,37.4,24.8,60,30.05,10.0,South,5.8,-,N/A,,Mostly Cloudy,180,2013-03-23 21:54:00
6:14 PM,37.4,24.8,60,30.04,10.0,South,4.6,-,N/A,,Clear,190,2013-03-23 22:14:00
6:34 PM,37.4,24.8,60,30.03,10.0,SSW,3.5,-,N/A,,Scattered Clouds,200,2013-03-23 22:34:00
6:54 PM,37.4,26.6,65,30.03,10.0,ESE,5.8,-,N/A,,Scattered Clouds,120,2013-03-23 22:54:00
7:14 PM,35.6,26.6,70,30.04,10.0,SE,5.8,-,N/A,,Clear,140,2013-03-23 23:14:00
7:34 PM,33.8,26.6,75,30.04,10.0,SE,4.6,-,N/A,,Clear,140,2013-03-23 23:34:00
7:54 PM,33.8,24.8,70,30.03,10.0,ESE,3.5,-,N/A,,Clear,120,2013-03-23 23:54:00
8:14 PM,32.0,24.8,75,30.04,10.0,Calm,Calm,-,N/A,,Clear,0,2013-03-24 00:14:00
8:34 PM,32.0,24.8,75,30.04,10.0,Calm,Calm,-,N/A,,Clear,0,2013-03-24 00:34:00
8:54 PM,32.0,26.6,80,30.05,10.0,Calm,Calm,-,N/A,,Clear,0,2013-03-24 00:54:00
9:14 PM,30.2,24.8,80,30.06,10.0,Calm,Calm,-,N/A,,Clear,0,2013-03-24 01:14:00
9:35 PM,30.2,24.8,80,30.06,10.0,Calm,Calm,-,N/A,,Clear,0,2013-03-24 01:35:00
9:54 PM,30.2,24.8,80,30.07,10.0,Calm,Calm,-,N/A,,Scattered Clouds,0,2013-03-24 01:54:00
10:14 PM,30.2,24.8,80,30.07,10.0,Calm,Calm,-,N/A,,Mostly Cloudy,0,2013-03-24 02:14:00
10:34 PM,30.2,24.8,80,30.06,10.0,Calm,Calm,-,N/A,,Overcast,0,2013-03-24 02:34:00
10:54 PM,30.2,26.6,86,30.05,10.0,NE,5.8,-,N/A,,Overcast,50,2013-03-24 02:54:00
11:15 PM,30.2,24.8,80,30.04,10.0,NNE,3.5,-,N/A,,Scattered Clouds,30,2013-03-24 03:15:00
11:34 PM,30.2,23.0,75,30.04,10.0,Calm,Calm,-,N/A,,Clear,0,2013-03-24 03:34:00
11:54 PM,30.2,23.0,75,30.04,10.0,Calm,Calm,-,N/A,,Clear,0,2013-03-24 03:54:00